Latest Coastal Weather Observations for Double Island Point

IDQ60701

Issued at 3:31 pm EST Saturday 29 April 2017 (issued every 10 minutes, with the page automatically refreshed every 10 minutes)

About coastal observations | Map of coastal stations | Coastal observations for QLD | Marine services | Other Formats
Station Details ID: 040068 Name: DOUBLE ISLAND POINT LIGHTHOUSE Lat: -25.93 Lon: 153.19 Height: 95.64 m
Data from the previous 72 hours. | See also: Recent months at Double Island Point
Date/Time
EST
Temp
°C
Wind Pressure Rain since
9am
mm
Weather Cloud Vis
km
Sea
Height
m
Swell
Dir  Spd
kts
Gust
kts
hPa Trend Height
m
Period
s
Dir
29/03:00pm 20.8 - - - 1016.2 - 0.0 - - - - - - -
29/02:30pm 21.1 - - - 1016.8 - - - - - - - - -
29/02:00pm 21.0 - - - 1016.5 - - - - - - - - -
29/01:30pm 21.0 - - - 1017.1 - - - - - - - - -
29/01:00pm 21.1 - - - 1017.0 - - - - - - - - -
29/12:30pm 20.8 - - - 1017.6 - - - - - - - - -
29/12:00pm 20.7 - - - 1017.5 - - - - - - - - -
29/11:30am 20.7 - - - 1018.2 - - - - - - - - -
29/11:00am 20.6 - - - 1017.8 - - - - - - - - -
29/10:30am 20.2 - - - 1018.3 - - - - - - - - -
29/10:00am 20.1 - - - 1017.9 - - - - - - - - -
29/09:30am 19.8 - - - 1018.3 - - - - - - - - -
29/09:00am 19.5 - - - 1017.8 - 0.0 - - - - - - -
29/08:30am 19.2 - - - 1017.7 - - - - - - - - -
29/08:00am 19.2 - - - 1017.0 - - - - - - - - -
29/07:30am 19.3 - - - 1016.9 - - - - - - - - -
29/07:00am 19.3 - - - 1016.1 - - - - - - - - -
29/06:30am 19.2 - - - 1016.0 - - - - - - - - -
29/06:00am 19.1 - - - 1015.3 - - - - - - - - -
29/05:30am 19.2 - - - 1015.0 - - - - - - - - -
29/05:00am 19.2 - - - 1014.3 - - - - - - - - -
29/04:30am 19.1 - - - 1014.5 - - - - - - - - -
29/04:00am 18.7 - - - 1013.9 - - - - - - - - -
29/03:30am 18.8 - - - 1014.3 - - - - - - - - -
29/03:00am 18.7 - - - 1014.1 - 0.0 - - - - - - -
29/02:30am 18.6 - - - 1014.8 - - - - - - - - -
29/02:00am 19.5 - - - 1014.3 - - - - - - - - -
29/01:30am 19.4 - - - 1014.9 - - - - - - - - -
29/01:00am 19.8 - - - 1014.8 - - - - - - - - -
29/12:30am 19.5 - - - 1015.3 - - - - - - - - -
29/12:00am 19.7 - - - 1015.0 - - - - - - - - -
 
Date/Time
EST
Temp
°C
Wind Pressure Rain since
9am
mm
Weather Cloud Vis
km
Sea
Height
m
Swell
Dir  Spd
kts
Gust
kts
hPa Trend Height
m
Period
s
Dir
28/11:30pm 20.0 - - - 1015.6 - - - - - - - - -
28/11:00pm 19.8 - - - 1015.3 - - - - - - - - -
28/10:30pm 20.1 - - - 1015.8 - - - - - - - - -
28/10:00pm 20.3 - - - 1015.5 - - - - - - - - -
28/09:30pm 20.6 - - - 1016.1 - - - - - - - - -
28/09:00pm 20.7 - - - 1015.2 - 0.0 - - - - - - -
28/08:30pm 20.8 - - - 1015.8 - - - - - - - - -
28/08:00pm 21.3 - - - 1015.3 - - - - - - - - -
28/07:30pm 21.3 - - - 1015.5 - - - - - - - - -
28/07:00pm 21.4 - - - 1014.9 - - - - - - - - -
28/06:30pm 21.4 - - - 1015.1 - - - - - - - - -
28/06:00pm 21.4 - - - 1014.5 - - - - - - - - -
28/05:30pm 21.4 - - - 1014.5 - - - - - - - - -
28/05:00pm 21.3 - - - 1013.9 - - - - - - - - -
28/04:30pm 21.1 - - - 1014.2 - - - - - - - - -
28/04:00pm 20.9 - - - 1013.5 - - - - - - - - -
28/03:30pm 20.7 - - - 1014.0 - - - - - - - - -
28/03:00pm 20.7 - - - 1013.5 - 0.0 - - - - - - -
28/02:30pm 20.8 - - - 1014.0 - - - - - - - - -
28/02:00pm 20.5 - - - 1013.6 - - - - - - - - -
28/01:30pm 20.4 - - - 1014.1 - - - - - - - - -
28/01:00pm 20.4 - - - 1013.9 - - - - - - - - -
28/12:30pm 20.3 - - - 1014.4 - - - - - - - - -
28/12:00pm 20.1 - - - 1014.3 - - - - - - - - -
28/11:30am 20.0 - - - 1015.1 - - - - - - - - -
28/11:00am 19.4 - - - 1014.9 - - - - - - - - -
28/10:30am 19.0 - - - 1015.8 - - - - - - - - -
28/10:00am 18.7 - - - 1015.5 - - - - - - - - -
28/09:30am 18.3 - - - 1015.7 - - - - - - - - -
28/09:00am 17.8 - - - 1015.2 - 0.0 - - - - - - -
28/08:30am 17.7 - - - 1015.6 - - - - - - - - -
28/08:00am 16.7 - - - 1015.1 - - - - - - - - -
28/07:30am 16.8 - - - 1015.2 - - - - - - - - -
28/07:00am 16.2 - - - 1014.4 - - - - - - - - -
28/06:30am 15.2 - - - 1014.4 - - - - - - - - -
28/06:00am 14.8 - - - 1013.6 - - - - - - - - -
28/05:30am 14.6 - - - 1013.8 - - - - - - - - -
28/05:00am 14.5 - - - 1013.3 - - - - - - - - -
28/04:30am 14.3 - - - 1013.7 - - - - - - - - -
28/04:00am 14.5 - - - 1012.7 - - - - - - - - -
28/03:30am 14.3 - - - 1013.1 - - - - - - - - -
28/03:00am 14.4 - - - 1012.9 - 0.0 - - - - - - -
28/02:30am 14.9 - - - 1013.5 - - - - - - - - -
28/02:00am 14.8 - - - 1013.1 - - - - - - - - -
28/01:30am 15.2 - - - 1014.1 - - - - - - - - -
28/01:00am 14.7 - - - 1013.7 - - - - - - - - -
28/12:30am 14.6 - - - 1014.5 - - - - - - - - -
28/12:00am 14.9 - - - 1014.0 - - - - - - - - -
 
Date/Time
EST
Temp
°C
Wind Pressure Rain since
9am
mm
Weather Cloud Vis
km
Sea
Height
m
Swell
Dir  Spd
kts
Gust
kts
hPa Trend Height
m
Period
s
Dir
27/11:30pm 15.1 - - - 1014.6 - - - - - - - - -
27/11:00pm 15.4 - - - 1014.3 - - - - - - - - -
27/10:30pm 15.8 - - - 1015.0 - - - - - - - - -
27/10:00pm 16.2 - - - 1014.4 - - - - - - - - -
27/09:30pm 16.7 - - - 1015.0 - - - - - - - - -
27/09:00pm 17.3 - - - 1014.4 - 0.0 - - - - - - -
27/08:30pm 17.7 - - - 1014.8 - - - - - - - - -
27/08:00pm 17.5 - - - 1014.3 - - - - - - - - -
27/07:30pm 17.8 - - - 1014.6 - - - - - - - - -
27/07:00pm 18.0 - - - 1013.7 - - - - - - - - -
27/06:30pm 19.5 - - - 1013.7 - - - - - - - - -
27/06:00pm 19.7 - - - 1012.7 - - - - - - - - -
27/05:30pm 19.7 - - - 1012.8 - - - - - - - - -
27/05:00pm 19.7 - - - 1012.0 - - - - - - - - -
27/04:30pm 20.1 - - - 1012.0 - - - - - - - - -
27/04:00pm 21.7 - - - 1011.5 - - - - - - - - -
27/03:30pm 21.7 - - - 1011.7 - - - - - - - - -
27/03:00pm 21.5 - - - 1011.1 - 0.0 - - - - - - -
27/02:30pm 21.4 - - - 1011.7 - - - - - - - - -
27/02:00pm 22.1 - - - 1011.1 - - - - - - - - -
27/01:30pm 22.0 - - - 1011.6 - - - - - - - - -
27/01:00pm 22.2 - - - 1011.6 - - - - - - - - -
27/12:30pm 21.6 - - - 1012.3 - - - - - - - - -
27/12:00pm 20.8 - - - 1012.4 - - - - - - - - -
27/11:30am 20.0 - - - 1013.6 - - - - - - - - -
27/11:00am 19.6 - - - 1014.0 - - - - - - - - -
27/10:30am 19.7 - - - 1014.8 - - - - - - - - -
27/10:00am 19.4 - - - 1014.6 - - - - - - - - -
27/09:30am 18.4 - - - 1015.2 - - - - - - - - -
27/09:00am 18.2 - - - 1014.8 - 4.0 - - - - - - -
27/08:30am 17.6 - - - 1015.1 - - - - - - - - -
27/08:00am 16.9 - - - 1014.4 - - - - - - - - -
27/07:30am 16.3 - - - 1014.2 - - - - - - - - -
27/07:00am 16.2 - - - 1013.4 - - - - - - - - -
27/06:30am 16.0 - - - 1013.3 - - - - - - - - -
27/06:00am 16.0 - - - 1012.4 - - - - - - - - -
27/05:30am 16.7 - - - 1012.4 - - - - - - - - -
27/05:00am 17.5 - - - 1011.8 - - - - - - - - -
27/04:30am 18.2 - - - 1011.7 - - - - - - - - -
27/04:00am 18.7 - - - 1011.2 - - - - - - - - -
27/03:30am 18.9 - - - 1011.4 - - - - - - - - -
27/03:00am 19.8 - - - 1010.9 - 4.0 - - - - - - -
27/02:30am 20.0 - - - 1011.5 - - - - - - - - -
27/02:00am 20.5 - - - 1011.1 - - - - - - - - -
27/01:30am 20.6 - - - 1011.7 - - - - - - - - -
27/01:00am 21.0 - - - 1011.2 - - - - - - - - -
27/12:30am 21.1 - - - 1011.5 - - - - - - - - -
27/12:00am 21.2 - - - 1011.0 - - - - - - - - -
 
Date/Time
EST
Temp
°C
Wind Pressure Rain since
9am
mm
Weather Cloud Vis
km
Sea
Height
m
Swell
Dir  Spd
kts
Gust
kts
hPa Trend Height
m
Period
s
Dir
26/11:30pm 21.4 - - - 1011.5 - - - - - - - - -
26/11:00pm 21.6 - - - 1011.2 - - - - - - - - -
26/10:30pm 21.5 - - - 1011.7 - - - - - - - - -
26/10:00pm 22.3 - - - 1011.6 - - - - - - - - -
26/09:30pm 22.5 - - - 1011.6 - - - - - - - - -
26/09:00pm 22.4 - - - 1011.3 - 0.0 - - - - - - -
26/08:30pm 22.5 - - - 1011.6 - - - - - - - - -
26/08:00pm 22.6 - - - 1011.0 - - - - - - - - -
26/07:30pm 22.5 - - - 1010.9 - - - - - - - - -
26/07:00pm 22.8 - - - 1010.5 - - - - - - - - -
26/06:30pm 23.2 - - - 1010.6 - - - - - - - - -
26/06:00pm 23.4 - - - 1009.7 - - - - - - - - -
26/05:30pm 23.6 - - - 1009.8 - - - - - - - - -
26/05:00pm 24.2 - - - 1009.2 - - - - - - - - -
26/04:30pm 24.5 - - - 1009.4 - - - - - - - - -
26/04:00pm 24.4 - - - 1009.0 - - - - - - - - -

Other Formats:

Comma delimited format used in spreadsheet applications
http://www.bom.gov.au/fwo/IDQ60701/IDQ60701.94584.axf

JavaScript Object Notation format (JSON) in row-major order
http://www.bom.gov.au/fwo/IDQ60701/IDQ60701.94584.json